Location: Liscomb Game Sanctuary
(45.1633°N, 62.5575°W)
Time: 14:11:55
(UTC-03:00)

Daily predictions for brighter satellites

Satellite Brightness Start Highest point End
(mag) Time Altitude Azimuth Time Altitude Azimuth Time Altitude Azimuth
NOSS 3-2 (C) 3.5 19:07:51 10° SSW 19:13:56 77° SE 19:20:39 10° NE
Cosmos 1943 Rocket 3.8 19:13:17 10° N 19:16:53 17° NE 19:20:28 10° E
Meteor 1-28 Rocket 4.0 19:14:12 10° NNE 19:17:31 30° E 19:20:49 10° SSE
Abrixas 3.1 19:15:22 10° SW 19:18:11 39° SSE 19:21:02 10° E
SAR-Lupe-1 4.4 19:15:37 10° SE 19:19:02 45° ENE 19:22:28 10° N
Cosmos 1420 Rocket 4.2 19:15:52 10° NNW 19:21:03 52° ENE 19:26:14 10° SE
Cosmos 1464 Rocket 4.0 19:20:48 10° S 19:26:59 73° E 19:33:08 10° NNE
Cosmos 2034 Rocket 4.1 19:21:46 10° SSE 19:27:52 56° E 19:34:04 10° NNE
Cosmos 1408 Rocket 3.5 19:23:37 10° N 19:27:59 77° E 19:32:17 10° SSE
Cosmos 2369 Rocket 2.8 19:23:25 10° NNW 19:28:40 37° NE 19:33:54 10° ESE
Cosmos 1500 Rocket 4.5 19:25:36 10° NNE 19:29:28 28° ENE 19:33:20 10° SE
ERBS 4.0 19:26:58 10° NNW 19:29:44 21° NNE 19:32:27 10° ENE
SKYMED 2 3.7 19:26:11 10° NNE 19:30:34 86° WNW 19:34:53 10° SSW
Cosmos 1943 4.1 19:28:19 10° SSE 19:32:52 26° ESE 19:37:26 10° NE
Cosmos 1346 3.3 19:30:13 10° N 19:33:06 44° ENE 19:35:58 10° SSE
H-2A R/B 4.4 19:30:48 10° ESE 19:33:10 16° ENE 19:35:34 10° NNE
Helios 1A 3.6 19:31:21 10° SE 19:35:11 35° ENE 19:39:03 10° N
TELKOM 3 3.5 19:33:27 10° WNW 19:36:39 67° SSW 19:38:41 12° SE
Cosmos 1805 3.2 19:33:48 10° S 19:37:40 62° E 19:41:35 10° NNE
Spot 2 Rocket 3.7 19:33:07 10° SE 19:37:56 49° ENE 19:42:48 10° N
Cosmos 1603 3.7 19:35:12 10° SSW 19:40:53 67° ESE 19:46:37 10° NNE
Cosmos 1048 Rocket 4.3 19:37:04 10° S 19:42:04 45° ESE 19:47:02 10° NNE
FREGAT/IRIS 2.6 19:40:37 10° SSE 19:43:40 69° E 19:46:46 10° N
In-Cosmos 22 4.4 19:38:48 10° NNW 19:44:36 81° W 19:50:20 10° S
USA 215 4.1 19:39:21 10° ENE 19:44:52 28° SE 19:50:21 10° S
Gbstr 26 Del rocket 3.9 19:42:14 10° SSW 19:46:13 35° SE 19:50:19 13° ENE
CZ-4C R/B 4.1 19:44:15 10° W 19:49:04 28° NNW 19:54:26 10° NNE
Cosmos 1269 Rocket 4.0 19:44:39 10° S 19:49:50 61° ESE 19:55:03 10° NNE
Cosmos 1733 4.0 19:48:48 10° SSE 19:52:10 29° E 19:55:32 10° NNE
HJ-1C 3.4 19:49:33 10° SSE 19:52:51 60° ENE 19:56:12 10° N
Cosmos 1674 2.8 19:52:23 10° N 19:56:13 53° ENE 20:00:01 10° SSE
Cosmos 1953 2.5 19:53:04 10° SSW 19:57:03 76° W 20:01:03 10° N
Spot 1 4.1 19:53:36 10° SSE 19:58:13 83° ENE 20:02:35 10° NNW
Helios 1B rocket 2.6 19:54:29 10° NNE 19:58:29 48° E 20:02:28 10° S
Cosmos 1743 Rocket 3.5 19:55:06 10° N 19:59:34 80° E 20:03:57 10° S
ATLAS 5 CENTAUR R/B 2.7 19:57:11 10° WSW 20:01:56 51° NW 20:07:07 10° NNE
Cosmos 1470 2.9 20:00:23 10° SSE 20:04:07 48° E 20:07:52 10° NNE
Resurs 1-3 3.5 20:01:44 10° SSE 20:06:04 67° ENE 20:10:27 10° N
CZ-4B DEB 3.3 20:06:34 27° ESE 20:07:47 39° ENE 20:10:52 10° N
Cosmos 1544 3.4 20:08:55 10° SSW 20:12:39 72° W 20:16:25 10° N
Resurs 01 Rocket 1.8 20:12:04 10° S 20:16:30 76° WSW 20:20:59 10° NNW
ERS-1 Rocket 4.2 20:16:03 22° ENE 20:16:36 22° ENE 20:20:25 10° NNE
METEOR-M 4.4 20:11:43 10° S 20:17:02 70° WSW 20:22:24 10° NNW
Elektron 1 3.9 20:15:20 10° SSW 20:18:09 51° SE 20:19:08 35° ENE
Cosmos 2058 3.6 20:15:29 10° N 20:19:13 32° ENE 20:19:29 32° E
USA 186 4.0 20:23:55 10° N 20:23:55 10° N 20:23:56 10° N
SL-8 R/B 3.6 20:18:57 10° WSW 20:23:45 87° SSE 20:26:10 29° ENE
ALOS 2.2 20:19:57 10° SSE 20:24:37 75° ENE 20:29:17 10° N
FengYun 1-2 T 4.2 20:19:19 10° SSE 20:24:49 85° WSW 20:30:21 10° NNW
Nadezhda 4 Rocket 4.3 20:20:04 10° NNW 20:26:18 69° W 20:32:26 10° S
ASTEX 1 3.2 20:25:03 10° N 20:29:58 75° E 20:34:50 10° S
Cosmos 2279 Rocket 4.4 20:25:11 13° SSE 20:30:09 38° E 20:35:48 10° NNE
Cosmos 1110 Rocket 4.0 20:26:04 10° NNW 20:31:21 65° ENE 20:34:02 29° SE
Meteor 1-11 4.3 20:26:42 10° N 20:32:26 57° ENE 20:35:37 26° SE
Cosmos 2151 2.8 20:28:32 10° N 20:32:46 68° E 20:34:34 33° SSE
ATLAS CENTAUR R/B 4.4 20:27:32 10° WSW 20:33:43 71° NNW 20:55:04 10° NE
GP-B 3.0 20:31:21 10° N 20:35:46 60° E 20:37:51 29° SSE
Meteor 1-29 3.2 20:32:25 10° N 20:35:55 69° WNW 20:39:22 10° SSW
Cosmos 1092 Rocket 4.1 20:31:05 10° N 20:37:18 77° W 20:43:25 10° S
FENGYUN 3A 3.6 20:32:32 10° SSE 20:37:55 87° WSW 20:43:22 10° NNW
Cosmos 839 Rocket 4.3 20:30:45 10° NW 20:38:31 81° WSW 20:43:03 21° SSE
H-2A R/B 4.2 20:43:09 14° NE 20:43:09 14° NE 20:44:21 10° NNE
Cosmos 1805 Rocket 3.9 20:37:21 10° N 20:41:20 44° ENE 20:41:20 44° ENE
Cosmos 2221 3.3 20:45:08 35° NE 20:45:08 35° NE 20:47:57 10° NNE
CENTAUR R/B 2.5 20:40:08 10° SW 20:46:16 90° NNW 20:53:16 10° NE
CZ-4B DEB 4.4 20:47:03 85° ENE 20:47:03 85° ENE 20:50:39 10° NNW
Cosmos 2026 Rocket 3.8 20:41:05 10° N 20:47:13 74° E 20:51:17 23° SSE
ISS -2.7 20:44:58 10° WSW 20:48:06 54° NNW 20:48:06 54° NNW
Cosmos 2142 Rocket 4.4 20:43:33 10° S 20:49:56 85° E 20:56:23 10° N
Cosmos 1655 Rocket 3.9 20:45:18 10° N 20:51:33 72° E 20:54:54 29° SSE
Cosmos 1633 Rocket 4.4 20:48:40 10° N 20:50:59 25° NNE 20:50:59 25° NNE
Abrixas 3.9 20:51:02 10° W 20:53:12 39° WNW 20:53:12 39° WNW
Cosmos 2251 Rocket 3.3 20:49:24 10° S 20:54:34 70° ESE 20:59:49 10° NNE
Cosmos 1634 Rocket 4.0 20:49:52 10° S 20:56:07 82° W 21:02:21 10° N
CZ-2D R/B 3.8 20:57:19 37° SSW 20:58:35 56° W 21:02:25 10° NNW
Cosmos 1328 4.4 20:56:32 10° NNW 21:00:26 54° W 21:01:42 37° SSW
Cosmos 1943 Rocket 2.0 20:55:54 10° NNW 21:01:34 83° ENE 21:02:49 56° SE
Cosmos 1331 Rocket 4.0 20:56:17 10° NNW 21:01:37 81° WSW 21:03:18 45° S
SL-14 R/B 3.4 20:58:02 10° N 21:01:44 73° NNW 21:01:44 73° NNW
Meteor 2-20 4.4 20:56:29 10° N 21:02:36 62° ENE 21:03:44 53° ESE
ERBS 3.5 21:03:22 10° NW 21:05:53 43° WNW 21:05:53 43° WNW
H-2A R/B 3.8 21:06:03 34° SW 21:07:09 44° W 21:10:52 10° NNW
Aureole 3 4.1 21:03:35 10° N 21:09:08 59° NE 21:09:08 59° NE
Cosmos 2369 Rocket 3.5 21:07:31 10° NW 21:12:41 37° WSW 21:16:54 15° SSW
Cosmos 1302 Rocket 3.8 21:10:51 10° NNW 21:16:00 81° NE 21:16:00 81° NE
Cosmos 1943 4.0 21:11:07 10° SW 21:16:36 51° WNW 21:22:05 10° NNE
SJ-11-01 4.5 21:21:45 65° NNW 21:21:45 65° NNW 21:25:47 10° NNW
Cosmos 1666 Rocket 4.4 21:16:36 10° N 21:19:41 44° N 21:19:41 44° N
Envisat 3.3 21:28:38 59° N 21:28:38 59° N 21:32:46 10° N
USA 215 3.1 21:25:37 39° NE 21:28:22 87° NNW 21:34:55 10° SW
Gbstr 26 Del rocket 3.7 21:28:15 10° WSW 21:32:55 64° NNW 21:32:55 64° NNW
ERS-1 Rocket 3.9 21:56:03 44° WNW 21:56:03 44° WNW 21:59:57 10° NNW
H-2A R/B 4.3 21:59:01 15° NNE 21:59:01 15° NNE 22:00:01 10° N
Cosmos 1656 Rocket 4.5 21:56:15 10° NNW 22:00:08 46° NW 22:00:08 46° NW
UNK 4.3 21:47:11 10° WNW 22:02:05 79° W 22:02:05 79° W
CENTAUR R/B 4.4 22:32:26 10° W 22:37:57 28° NNW 22:44:03 10° NNE
